Starlink 5214

operational
NORAD ID: 54762 Int'l Des: 2022-175 Owner: SPXS Country: US Constellation: starlink
LEOCIRCULAR

关于 Starlink 5214

正在加载描述...

实时位置

正在加载3D地球...

即将过境

高度历史

Altitude vs Time

uPlot chart will show altitude changes over time

两行轨道根数

1 54762U 22175E 26035.67331228 .00001740 00000-0 12735-3 0 9992
2 54762 53.2160 192.4108 0001059 103.1511 256.9599 15.08846837174934
Epoch: Feb 4, 2026 • Age: 11 hours

当前状态

高度 558.5 km
速度 7.58 km/s
星下点 -52.15°S, 94.39°W
发射日期 Dec 17, 2022
运行时间 3.1 years
类型 internet

技术详情

分类 Payload
质量 305.00 kg
干质量 290.00 kg
总质量 305.00 kg
长度 0.20 m
直径 2.80 m
跨度 9.00 m
形状 Box + pan
制造商 SPXS
平台类型 Starlink
阶段状态 In Orbit
所有者/国家 SPXS/US

大型星座

Loading constellations...